SCP
0 0 0 0 0 0 0 0 0 0 0 0 0 0 0 0 0 0 0 0 0 0 0 0 0 0 0 0 0 0 0 0 0 0 0 0 0 0 0 0 0 0 0 0
0 0 0 0 0 0 0 0 0 0 0 0 0 0 0 0 0 0 0 0 0 0 0 0 0 0 0 0 0 0 0 0 0 0 0 0 0 0 0 0 0 0 0 0
0 0 0 0 0 0 0 0 0 0 0 0 0 0 0 0 0 0 0 0 0 0 0 0 0 0 0 0 0 0 0 0 0 0 0 0 0 0 0 0 0 0 0 0
0 0 0 0 0 0 0 0 0 0 0 0 0 0 0 0 0 0 0 0 0 0 0 0 0 0 0 0 0 0 0 0 0 0 0 0 0 0 0 0 0 0 0 0
0 0 0 0 0 0 0 0 0 0 0 0 0 0 0 0 0 0 0 0 0 0 0 0 0 0 0 0 0 0 0 0 0 0 0 0 0 0 0 0 0 0 0 0
0 0 0 0 0 0 0 0 0 0 0 0 0 0 0 0 0 0 0 0 0 0 0 0 0 0 0 0 0 0 0 0 0 0 0 0 0 0 0 0 0 0 0 0
0 0 0 0 0 0 0 0 0 0 -0 -0 0 0 0 0 0 0 0 0 0 0 0 0 0 0 0 0 0 0 0 0 0 0 0 0 0 0 0 0 0 0 0 0
0 0 0 0 0 0 0 0 0 0 0 0 0 0 -0 0 0 0 0 0 0 0 0 0 0 0 0 0 0 0 0 0 0 0 0 0 0 0 0 0 0 0 0 0
0 0 0 0 0 0 0 0 0 -0 0 0 -0 0 0 0 0 0 0 0 0 0 0 0 0 0 0 0 0 0 0 0 0 0 0 0 0 0 0 0 0 0 0 0
0 0 0 0 0 0 0 0 0 0 -0 0 0 0 0 0 0 0 0 0 0 0 0 0 0 0 0 0 0 0 0 0 0 0 0 0 0 0 0 0 0 0 0 0
0 0 0 0 0 0 0 0 0 0 0 0 0 0 0 0 0 0 0 0 0 0 0 0 0 0 0 0 0 0 0 0 0 0 0 0 0 0 0 0 0 0 0 0
0 0 0 0 0 0 0 0 0 0 0 0 0 0 0 0 0 0 0 0 0 0 0 0 0 0 0 0 0 0 0 0 0 0 0 0 0 -0 0 0 0 0 0 0
0 0 0 0 0 0 0 0 0 0 0 0 0 0 0 0 0 0 0 0 0 0 0 0 0 0 0 0 0 0 0 0 0 0 0 0 0 0 0 0 0 0 0 0
0 0 0 0 0 0 0 0 0 0 0 0 0 0 0 0 0 0 0 0 0 0 0 0 0 0 0 0 0 0 0 0 0 0 0 0 0 0 0 0 0 0 0 0
0 0 0 0 0 0 0 0 0 0 0 0 0 0 0 0 0 0 0 0 0 0 0 0 0 0 0 0 0 0 0 0 0 0 0 0 0 0 0 0 0 0 0 0
0 0 0 0 0 0 0 0 0 0 0 0 0 0 0 0 0 0 0 0 0 0 0 0 0 0 0 0 0 0 0 0 0 0 0 0 0 0 0 0 0 0 0 0
0 0 0 0 0 0 0 0 0 0 0 0 0 0 0 0 0 0 0 0 0 0 0 0 0 0 0 0 0 0 0 0 0 0 0 0 0 0 0 0 0 0 0 0
0 0 0 0 0 0 0 0 0 0 0 0 0 0 0 0 0 0 0 0 0 0 0 -0 0 0 0 0 0 0 0 0 0 0 0 0 0 0 0 0 0 0 0 0
0 -0 -0 -0 0 0 0 0 0 0 0 0 0 0 0 0 0 0 0 0 0 0 -0 0 -0 0 0 0 0 0 0 0 0 0 0 0 0 0 0 0 0 0 0 0
0 0 0 0 0 0 0 0 0 0 0 0 0 0 0 0 0 0 0 0 0 0 0 -0 -0 0 0 0 -0 0 0 0 0 0 0 0 0 0 0 0 0 0 0 0
0 0 -0 0 0 0 0 0 0 0 0 0 0 0 0 0 0 0 0 0 -0 -0 0 -0 -0 -0 -0 -0 -0 0 0 0 0 0 0 0 0 0 0 0 0 0 0 0
0 0 0 0 0 0 0 0 0 0 0 0 0 0 0 0 0 0 0 0 0 0 0 -0 -0 -0 0 -0 0 0 0 0 0 0 0 0 0 0 0 0 0 0 0 0
0 0 0 0 0 0 0 0 0 0 0 0 0 0 0 0 0 0 -0 -0 0 0 -0 -0 -0 -0 -0 0 0 0 0 0 0 0 0 0 0 0 0 0 0 0 0 0
0 0 0 0 0 0 0 0 0 0 0 0 0 0 0 0 -0 -0 -0 -0 -0 -0 -0 -0 -0 -0 0 0 0 0 0 0 0 0 0 0 0 0 0 0 0 0 0 0
0 0 0 0 0 0 0 0 0 0 0 0 0 0 0 0 0 0 -0 -0 -0 -0 -0 -0 -0 -0 0 0 0 0 0 0 0 0 0 0 0 0 0 0 0 0 0 0
0 0 0 0 0 0 0 0 0 0 0 0 0 -0 0 0 0 -0 -0 -0 -0 -0 -0 0 0 0 0 0 0 0 0 0 0 0 0 0 0 0 0 0 0 0 0 0
0 0 0 0 0 0 0 0 0 0 0 0 0 0 0 -0 -0 -0 -0 -0 -0 -0 -0 -0 -0 0 0 0 0 0 0 0 0 0 0 0 0 0 0 0 0 0 0 0
Wind_Speed_500mb
15 14 10 9 9 14 16 5 12 16 21 17 29 24 33 39 37 39 45 46 41 35 31 27 24 21 15 11 6 7 22 30 28 25 25 29 29 27 26 27 28 30 29 30
10 10 13 6 3 13 9 8 6 14 8 6 34 39 42 45 42 44 45 42 40 37 31 29 24 21 15 3 10 19 23 22 21 23 24 26 24 25 25 30 34 33 30 28
15 7 12 3 16 13 8 9 13 12 16 19 16 30 50 54 47 50 47 43 40 37 35 32 29 19 8 3 10 13 14 15 13 16 20 23 25 27 29 35 36 36 36 35
6 5 6 15 2 5 6 5 12 6 14 19 30 26 45 51 51 50 56 49 44 43 41 37 27 16 5 5 9 7 4 10 17 20 23 24 22 24 28 31 33 36 36 37
11 7 7 5 8 15 15 14 11 16 22 29 46 37 18 42 42 48 57 49 44 45 43 35 22 13 4 6 12 12 11 14 17 21 20 16 16 20 26 31 36 42 42 43
6 10 14 17 8 22 7 5 15 29 33 42 40 8 8 51 45 50 46 45 48 48 41 30 21 11 6 5 9 5 7 12 17 20 23 24 25 26 27 28 33 35 40 47
7 7 11 14 7 20 14 16 42 52 55 52 13 11 47 60 49 48 48 47 44 36 25 17 12 7 4 6 6 12 14 16 22 26 28 27 24 21 21 22 24 27 33 39
5 7 3 18 12 17 17 25 61 58 55 53 31 41 72 66 61 56 52 49 40 33 26 19 12 5 3 5 11 14 19 23 22 23 23 20 18 18 20 22 25 27 31 30
14 13 6 47 25 42 37 60 56 69 68 68 53 62 70 69 59 57 53 48 37 26 22 17 11 5 1 10 16 19 16 15 14 13 13 13 14 17 17 23 27 31 33 34
5 6 10 19 29 26 31 46 67 77 79 66 63 63 69 67 65 61 53 43 34 27 20 15 9 5 6 13 16 13 11 9 8 10 12 13 14 15 19 27 31 32 34 35
11 15 5 15 34 37 40 49 65 72 79 70 59 64 69 72 66 58 49 39 30 23 14 10 11 10 11 13 15 11 8 10 9 10 12 13 11 12 19 22 29 34 32 33
11 7 4 14 38 48 54 64 70 81 67 59 56 67 70 68 60 53 46 37 28 16 11 14 13 12 15 20 18 12 13 14 10 12 12 14 15 12 11 18 22 26 27 29
7 12 15 15 49 55 62 67 70 69 68 63 59 65 68 66 58 49 38 28 18 16 18 18 15 17 24 22 18 18 17 13 10 8 11 15 19 24 29 24 24 25 27 27
14 27 23 37 29 51 62 63 60 60 60 58 71 68 64 59 54 41 31 24 23 24 24 21 17 21 25 21 17 16 9 4 10 14 18 21 24 31 40 42 44 38 24 29
15 9 19 31 53 60 62 64 63 62 60 66 68 66 59 57 46 37 32 29 27 27 24 21 19 26 23 21 16 9 2 6 12 19 21 22 24 28 37 43 40 33 37 32
50 50 32 36 62 62 65 62 61 62 66 71 63 54 50 41 39 38 36 33 34 30 30 22 19 23 18 18 13 4 7 11 14 17 19 16 25 24 30 35 40 42 41 34
48 56 15 25 47 59 58 56 56 65 66 61 58 54 47 44 43 41 36 33 25 26 31 29 24 20 16 13 9 10 13 17 19 20 23 21 25 30 36 34 42 42 43 41
56 75 65 30 51 52 54 53 56 61 64 61 56 50 46 45 44 45 44 39 33 32 31 28 19 11 7 5 6 9 13 15 13 19 19 23 32 40 43 47 52 58 59 53
48 70 61 56 44 57 57 58 61 59 55 51 48 45 37 35 40 47 42 36 32 29 27 20 14 9 4 2 1 5 10 14 19 27 34 39 43 45 50 52 53 59 51 52
35 42 38 51 59 64 61 58 56 53 47 44 44 43 41 40 43 46 43 35 27 25 21 17 12 7 6 3 6 13 22 32 38 41 44 47 49 50 51 45 41 45 53 53
34 38 48 62 66 59 57 60 55 49 45 43 46 45 40 42 44 48 41 33 27 19 15 13 14 11 6 9 19 28 34 39 43 44 48 49 48 42 32 35 45 51 52 50
48 47 60 70 68 61 60 56 47 43 42 41 40 40 41 39 42 38 28 24 19 14 12 15 14 9 11 18 25 32 33 35 38 42 45 38 26 29 37 42 49 56 50 46
60 61 63 71 65 58 61 52 45 38 38 36 39 41 37 33 32 31 23 19 18 13 14 16 9 8 16 23 28 32 36 39 42 35 27 26 33 35 39 46 53 47 39 38
67 68 66 63 53 56 58 51 41 33 30 30 31 32 32 33 29 23 16 14 15 20 17 9 7 16 25 28 33 33 37 37 29 26 26 31 31 37 45 49 44 37 34 38
64 67 57 51 55 58 52 48 43 39 35 34 32 33 33 28 20 15 12 16 21 18 13 12 18 24 25 31 35 33 29 31 23 22 27 29 34 42 47 44 37 36 38 38
63 62 59 57 55 53 52 51 45 42 41 38 44 40 33 27 18 15 15 20 19 14 13 18 21 26 33 31 27 26 31 23 20 24 26 31 39 45 41 36 34 35 37 41
65 60 58 54 48 47 44 40 43 47 40 42 46 38 31 23 20 21 19 14 8 8 18 20 23 19 23 19 24 28 23 19 21 22 25 33 43 42 37 33 34 36 40 44
Wind_Direction_500mb
226 210 185 244 194 177 208 191 163 220 192 214 190 179 162 162 154 144 140 143 143 140 135 135 148 157 153 140 113 332 325 325 318 324 336 337 336 341 346 343 346 346 342 339
236 181 187 239 204 182 176 152 264 124 253 165 135 166 154 163 170 160 157 157 152 150 148 150 155 155 152 114 350 333 324 319 328 335 342 346 355 1 1 4 8 5 360 352
240 181 119 330 219 199 170 178 148 169 216 153 143 159 174 177 184 184 173 172 165 162 162 161 164 159 147 297 325 332 331 341 349 8 13 19 29 31 36 35 32 29 27 21
169 105 177 240 9 123 137 153 170 118 146 159 162 170 181 188 185 183 176 177 172 169 168 168 163 176 203 340 351 356 38 45 51 43 34 31 47 50 43 38 34 33 30 24
139 171 262 309 203 163 168 232 178 130 129 118 130 130 148 186 187 182 180 176 174 174 171 162 170 182 129 91 117 109 76 51 48 41 36 45 58 53 57 59 50 43 38 33
150 146 185 227 219 175 104 273 173 142 148 144 145 132 212 177 184 174 174 169 166 166 165 165 151 108 64 119 150 140 67 71 60 53 49 70 75 77 69 51 45 38 34 30
181 178 280 247 181 159 128 230 165 157 162 156 162 165 166 169 172 172 170 166 163 161 159 154 147 124 181 142 120 91 75 83 87 72 68 84 72 58 46 36 25 22 23 23
123 91 175 148 101 172 194 158 161 170 169 161 151 142 158 166 167 168 166 164 168 166 164 161 150 181 157 107 103 91 98 99 86 76 70 66 56 36 23 14 8 3 4 7
187 208 284 179 199 211 168 155 164 171 177 170 154 155 164 164 165 163 165 166 166 173 173 168 172 225 144 125 117 109 99 92 74 58 45 34 20 15 6 359 356 358 351 352
7 289 264 264 198 191 177 171 177 181 179 175 161 166 166 165 163 164 167 170 174 180 185 182 191 203 166 143 139 117 89 75 80 40 17 1 351 350 359 359 352 346 347 346
263 274 286 228 205 186 182 172 173 175 179 177 170 167 167 162 165 169 171 172 175 182 188 194 181 172 164 146 138 127 99 100 76 31 9 1 359 9 14 7 1 3 358 358
232 214 207 248 199 183 176 173 172 170 167 173 176 167 167 164 169 169 168 171 174 182 189 180 175 179 157 140 131 120 121 109 72 71 56 51 46 36 342 341 346 355 3 2
272 326 272 200 174 177 173 171 171 171 176 171 172 167 168 165 168 167 167 170 177 173 168 175 174 166 145 138 133 132 133 105 77 39 8 354 343 334 328 332 326 327 337 345
231 136 131 152 154 169 166 162 163 165 166 169 165 169 166 166 161 165 163 166 167 167 165 163 159 156 152 149 138 144 133 53 352 336 328 317 322 333 335 334 328 324 321 326
157 181 167 157 147 152 156 155 155 155 159 161 164 163 165 163 161 158 160 162 162 162 160 160 163 163 164 160 152 145 113 335 333 329 328 329 329 326 341 346 348 341 329 316
108 102 121 140 148 151 152 154 151 151 157 159 162 165 166 160 157 157 159 168 166 162 156 154 165 175 169 178 179 204 289 299 317 334 333 341 347 340 351 358 351 348 338 326
124 92 100 170 149 154 155 157 158 159 159 163 165 164 159 157 154 154 159 153 146 151 149 145 152 148 155 175 209 255 284 294 295 319 326 322 325 324 325 328 334 327 331 324
172 158 172 208 174 161 161 159 161 162 164 162 163 163 161 164 160 158 155 154 155 156 159 159 167 172 178 218 261 284 313 321 307 309 316 318 317 319 323 316 314 315 318 320
169 153 162 177 190 178 160 161 159 157 161 165 166 162 162 160 164 163 161 162 169 174 172 173 184 178 147 207 322 9 355 330 314 310 309 308 314 312 314 309 313 319 320 320
169 175 187 187 181 171 158 159 158 158 160 161 160 159 157 160 165 170 172 175 177 171 184 195 204 174 142 133 313 315 312 313 314 316 312 310 311 314 317 320 325 326 324 320
189 188 184 174 173 167 162 158 157 157 156 161 166 167 161 161 170 172 177 188 184 183 186 199 212 207 217 282 301 308 311 313 313 312 310 309 312 319 328 333 331 332 332 331
199 192 178 173 172 166 164 163 158 155 156 160 169 169 168 168 176 180 189 182 185 185 192 201 215 242 297 313 317 319 322 316 311 310 318 326 339 339 335 333 333 333 329 325
182 183 171 167 167 167 167 165 162 158 160 163 172 177 180 180 177 182 185 179 187 200 205 196 230 283 315 318 319 312 307 308 315 324 340 347 345 339 333 332 332 332 335 336
170 172 166 165 164 168 166 167 163 162 163 166 171 177 177 180 176 186 187 199 202 195 192 209 278 307 311 313 316 309 308 320 330 337 342 345 339 330 329 329 333 336 335 331
161 156 162 165 170 170 165 162 162 164 166 164 167 168 162 169 171 183 184 188 181 191 220 273 311 321 311 307 311 317 323 326 329 337 340 334 328 330 331 331 333 333 334 335
156 161 163 165 166 166 167 167 167 169 169 169 168 167 168 172 172 177 173 175 189 221 282 315 321 299 307 307 311 329 331 320 331 334 329 325 330 333 333 334 335 335 335 335
155 150 152 156 160 164 167 171 173 173 177 174 171 173 176 180 170 174 178 187 219 289 313 312 311 325 327 333 340 340 328 324 330 324 319 329 336 337 336 336 335 333 334 334
Wind_Speed_850mb
15 14 10 9 9 14 16 5 12 16 21 17 29 24 33 39 37 39 45 46 41 35 31 27 24 21 15 11 6 7 22 30 28 25 25 29 29 27 26 27 28 30 29 30
10 10 13 6 3 13 9 8 6 14 8 6 34 39 42 45 42 44 45 42 40 37 31 29 24 21 15 3 10 19 23 22 21 23 24 26 24 25 25 30 34 33 30 28
15 7 12 3 16 13 8 9 13 12 16 19 16 30 50 54 47 50 47 43 40 37 35 32 29 19 8 3 10 13 14 15 13 16 20 23 25 27 29 35 36 36 36 35
6 5 6 15 2 5 6 5 12 6 14 19 30 26 45 51 51 50 56 49 44 43 41 37 27 16 5 5 9 7 4 10 17 20 23 24 22 24 28 31 33 36 36 37
11 7 7 5 8 15 15 14 11 16 22 29 46 37 18 42 42 48 57 49 44 45 43 35 22 13 4 6 12 12 11 14 17 21 20 16 16 20 26 31 36 42 42 43
6 10 14 17 8 22 7 5 15 29 33 42 40 8 8 51 45 50 46 45 48 48 41 30 21 11 6 5 9 5 7 12 17 20 23 24 25 26 27 28 33 35 40 47
7 7 11 14 7 20 14 16 42 52 55 52 13 11 47 60 49 48 48 47 44 36 25 17 12 7 4 6 6 12 14 16 22 26 28 27 24 21 21 22 24 27 33 39
5 7 3 18 12 17 17 25 61 58 55 53 31 41 72 66 61 56 52 49 40 33 26 19 12 5 3 5 11 14 19 23 22 23 23 20 18 18 20 22 25 27 31 30
14 13 6 47 25 42 37 60 56 69 68 68 53 62 70 69 59 57 53 48 37 26 22 17 11 5 1 10 16 19 16 15 14 13 13 13 14 17 17 23 27 31 33 34
5 6 10 19 29 26 31 46 67 77 79 66 63 63 69 67 65 61 53 43 34 27 20 15 9 5 6 13 16 13 11 9 8 10 12 13 14 15 19 27 31 32 34 35
11 15 5 15 34 37 40 49 65 72 79 70 59 64 69 72 66 58 49 39 30 23 14 10 11 10 11 13 15 11 8 10 9 10 12 13 11 12 19 22 29 34 32 33
11 7 4 14 38 48 54 64 70 81 67 59 56 67 70 68 60 53 46 37 28 16 11 14 13 12 15 20 18 12 13 14 10 12 12 14 15 12 11 18 22 26 27 29
7 12 15 15 49 55 62 67 70 69 68 63 59 65 68 66 58 49 38 28 18 16 18 18 15 17 24 22 18 18 17 13 10 8 11 15 19 24 29 24 24 25 27 27
14 27 23 37 29 51 62 63 60 60 60 58 71 68 64 59 54 41 31 24 23 24 24 21 17 21 25 21 17 16 9 4 10 14 18 21 24 31 40 42 44 38 24 29
15 9 19 31 53 60 62 64 63 62 60 66 68 66 59 57 46 37 32 29 27 27 24 21 19 26 23 21 16 9 2 6 12 19 21 22 24 28 37 43 40 33 37 32
50 50 32 36 62 62 65 62 61 62 66 71 63 54 50 41 39 38 36 33 34 30 30 22 19 23 18 18 13 4 7 11 14 17 19 16 25 24 30 35 40 42 41 34
48 56 15 25 47 59 58 56 56 65 66 61 58 54 47 44 43 41 36 33 25 26 31 29 24 20 16 13 9 10 13 17 19 20 23 21 25 30 36 34 42 42 43 41
56 75 65 30 51 52 54 53 56 61 64 61 56 50 46 45 44 45 44 39 33 32 31 28 19 11 7 5 6 9 13 15 13 19 19 23 32 40 43 47 52 58 59 53
48 70 61 56 44 57 57 58 61 59 55 51 48 45 37 35 40 47 42 36 32 29 27 20 14 9 4 2 1 5 10 14 19 27 34 39 43 45 50 52 53 59 51 52
35 42 38 51 59 64 61 58 56 53 47 44 44 43 41 40 43 46 43 35 27 25 21 17 12 7 6 3 6 13 22 32 38 41 44 47 49 50 51 45 41 45 53 53
34 38 48 62 66 59 57 60 55 49 45 43 46 45 40 42 44 48 41 33 27 19 15 13 14 11 6 9 19 28 34 39 43 44 48 49 48 42 32 35 45 51 52 50
48 47 60 70 68 61 60 56 47 43 42 41 40 40 41 39 42 38 28 24 19 14 12 15 14 9 11 18 25 32 33 35 38 42 45 38 26 29 37 42 49 56 50 46
60 61 63 71 65 58 61 52 45 38 38 36 39 41 37 33 32 31 23 19 18 13 14 16 9 8 16 23 28 32 36 39 42 35 27 26 33 35 39 46 53 47 39 38
67 68 66 63 53 56 58 51 41 33 30 30 31 32 32 33 29 23 16 14 15 20 17 9 7 16 25 28 33 33 37 37 29 26 26 31 31 37 45 49 44 37 34 38
64 67 57 51 55 58 52 48 43 39 35 34 32 33 33 28 20 15 12 16 21 18 13 12 18 24 25 31 35 33 29 31 23 22 27 29 34 42 47 44 37 36 38 38
63 62 59 57 55 53 52 51 45 42 41 38 44 40 33 27 18 15 15 20 19 14 13 18 21 26 33 31 27 26 31 23 20 24 26 31 39 45 41 36 34 35 37 41
65 60 58 54 48 47 44 40 43 47 40 42 46 38 31 23 20 21 19 14 8 8 18 20 23 19 23 19 24 28 23 19 21 22 25 33 43 42 37 33 34 36 40 44
Wind_Direction_850mb
226 210 185 244 194 177 208 191 163 220 192 214 190 179 162 162 154 144 140 143 143 140 135 135 148 157 153 140 113 332 325 325 318 324 336 337 336 341 346 343 346 346 342 339
236 181 187 239 204 182 176 152 264 124 253 165 135 166 154 163 170 160 157 157 152 150 148 150 155 155 152 114 350 333 324 319 328 335 342 346 355 1 1 4 8 5 360 352
240 181 119 330 219 199 170 178 148 169 216 153 143 159 174 177 184 184 173 172 165 162 162 161 164 159 147 297 325 332 331 341 349 8 13 19 29 31 36 35 32 29 27 21
169 105 177 240 9 123 137 153 170 118 146 159 162 170 181 188 185 183 176 177 172 169 168 168 163 176 203 340 351 356 38 45 51 43 34 31 47 50 43 38 34 33 30 24
139 171 262 309 203 163 168 232 178 130 129 118 130 130 148 186 187 182 180 176 174 174 171 162 170 182 129 91 117 109 76 51 48 41 36 45 58 53 57 59 50 43 38 33
150 146 185 227 219 175 104 273 173 142 148 144 145 132 212 177 184 174 174 169 166 166 165 165 151 108 64 119 150 140 67 71 60 53 49 70 75 77 69 51 45 38 34 30
181 178 280 247 181 159 128 230 165 157 162 156 162 165 166 169 172 172 170 166 163 161 159 154 147 124 181 142 120 91 75 83 87 72 68 84 72 58 46 36 25 22 23 23
123 91 175 148 101 172 194 158 161 170 169 161 151 142 158 166 167 168 166 164 168 166 164 161 150 181 157 107 103 91 98 99 86 76 70 66 56 36 23 14 8 3 4 7
187 208 284 179 199 211 168 155 164 171 177 170 154 155 164 164 165 163 165 166 166 173 173 168 172 225 144 125 117 109 99 92 74 58 45 34 20 15 6 359 356 358 351 352
7 289 264 264 198 191 177 171 177 181 179 175 161 166 166 165 163 164 167 170 174 180 185 182 191 203 166 143 139 117 89 75 80 40 17 1 351 350 359 359 352 346 347 346
263 274 286 228 205 186 182 172 173 175 179 177 170 167 167 162 165 169 171 172 175 182 188 194 181 172 164 146 138 127 99 100 76 31 9 1 359 9 14 7 1 3 358 358
232 214 207 248 199 183 176 173 172 170 167 173 176 167 167 164 169 169 168 171 174 182 189 180 175 179 157 140 131 120 121 109 72 71 56 51 46 36 342 341 346 355 3 2
272 326 272 200 174 177 173 171 171 171 176 171 172 167 168 165 168 167 167 170 177 173 168 175 174 166 145 138 133 132 133 105 77 39 8 354 343 334 328 332 326 327 337 345
231 136 131 152 154 169 166 162 163 165 166 169 165 169 166 166 161 165 163 166 167 167 165 163 159 156 152 149 138 144 133 53 352 336 328 317 322 333 335 334 328 324 321 326
157 181 167 157 147 152 156 155 155 155 159 161 164 163 165 163 161 158 160 162 162 162 160 160 163 163 164 160 152 145 113 335 333 329 328 329 329 326 341 346 348 341 329 316
108 102 121 140 148 151 152 154 151 151 157 159 162 165 166 160 157 157 159 168 166 162 156 154 165 175 169 178 179 204 289 299 317 334 333 341 347 340 351 358 351 348 338 326
124 92 100 170 149 154 155 157 158 159 159 163 165 164 159 157 154 154 159 153 146 151 149 145 152 148 155 175 209 255 284 294 295 319 326 322 325 324 325 328 334 327 331 324
172 158 172 208 174 161 161 159 161 162 164 162 163 163 161 164 160 158 155 154 155 156 159 159 167 172 178 218 261 284 313 321 307 309 316 318 317 319 323 316 314 315 318 320
169 153 162 177 190 178 160 161 159 157 161 165 166 162 162 160 164 163 161 162 169 174 172 173 184 178 147 207 322 9 355 330 314 310 309 308 314 312 314 309 313 319 320 320
169 175 187 187 181 171 158 159 158 158 160 161 160 159 157 160 165 170 172 175 177 171 184 195 204 174 142 133 313 315 312 313 314 316 312 310 311 314 317 320 325 326 324 320
189 188 184 174 173 167 162 158 157 157 156 161 166 167 161 161 170 172 177 188 184 183 186 199 212 207 217 282 301 308 311 313 313 312 310 309 312 319 328 333 331 332 332 331
199 192 178 173 172 166 164 163 158 155 156 160 169 169 168 168 176 180 189 182 185 185 192 201 215 242 297 313 317 319 322 316 311 310 318 326 339 339 335 333 333 333 329 325
182 183 171 167 167 167 167 165 162 158 160 163 172 177 180 180 177 182 185 179 187 200 205 196 230 283 315 318 319 312 307 308 315 324 340 347 345 339 333 332 332 332 335 336
170 172 166 165 164 168 166 167 163 162 163 166 171 177 177 180 176 186 187 199 202 195 192 209 278 307 311 313 316 309 308 320 330 337 342 345 339 330 329 329 333 336 335 331
161 156 162 165 170 170 165 162 162 164 166 164 167 168 162 169 171 183 184 188 181 191 220 273 311 321 311 307 311 317 323 326 329 337 340 334 328 330 331 331 333 333 334 335
156 161 163 165 166 166 167 167 167 169 169 169 168 167 168 172 172 177 173 175 189 221 282 315 321 299 307 307 311 329 331 320 331 334 329 325 330 333 333 334 335 335 335 335
155 150 152 156 160 164 167 171 173 173 177 174 171 173 176 180 170 174 178 187 219 289 313 312 311 325 327 333 340 340 328 324 330 324 319 329 336 337 336 336 335 333 334 334